星链-3971 (STARLINK-3971 )

导读

STARLINK-3971是美国SpaceX星链计划中的卫星,于2022年5月14日发射升空,属于星链卫星网络的组成部分,主要为全球提供低延迟、高速率的宽带互联网服务,该卫星运行在近地轨道,助力星链星座完成全球覆盖布局,拓展卫星互联网服务范围。

Basic Information
目录编号:
52642
目录名称:
STARLINK-3971
国际标识:
2022-052AW
轨道中心:
EARTH
卫星名称:
星链-3971
卫星全名:
星链-3971 (STARLINK-3971 )
卫星状态:
在轨 (已飞行1495 天)
发射日期:
2022-05-14 UTC
国别 :
美国 (US)
星等 :
--
Orbit Information
数据来源 国际轨道数据 AOE轨道数据
星历时间 2026-06-16T15:17:31+0800
1天前
查看轨道信息
2026-06-15T06:00:00+0800
2天前
查看轨道信息
半长轴 6917.91km 6917.895km
偏心率 0.0001206 0.0001166
轨道倾角 53.160° 53.159°
近地点辐角 84.482° 119.687°
升交点赤经 176.335° 182.566°
平近点角 275.631° 261.508°
近地点 538.938km 538.951km
远地点 540.608km 540.565km
周期 95.438分钟 95.438分钟
每日圈数 15.088306 15.088355
Detailed Information
固有亮度:
5
最大亮度:
2.5
卫星平台:
Starlink v1.5
覆盖范围:
全球
运营商:
太空探索技术公司
运营商所在国:
美国
制造商(研发单位):
太空探索技术公司
制造商所在国:
美国
使用方式:
暂无
Satellite Introduction
星链(Starlink)计划是由太空探索技术公司(SpaceX)提出的一个巨型低轨卫星互联网星座项目,计划在2019年至2024年间在太空搭建由约1.2万颗卫星组成的“星链”网络,其中1584颗将部署在地球上空550千米处的近地轨道,并从2020年开始工作。该卫星仍在工作。
2D Orbit Map
3D Orbit Map
Orbit Altitude Analysis Chart
Orbit Inclination Analysis Chart
Orbit Comprehensive Analysis Chart
View Comprehensive Chart